Location: Irma
(52.9170°N, 111.2330°W)
Time: 03:29:20
(UTC-06:00)

Amateur Radio Satellites - All Passes

Search period start: 26 October 2014 02:59
Search period end: 27 October 2014 02:59
Location: Irma, 52.9170°N, 111.2330°W

Satellite Date Start Highest point End Downlink Frequencies (MHz)
Time Altitude Azimuth
MaSat-1 26 Oct 03:03:46 03:04:57 11° 328° (NNW) 03:06:06 437.345 MHz
Uribyol 2 26 Oct 03:09:16 03:14:03 35° 96° (E) 03:18:47 436.500 FM
ITAMSAT 1 26 Oct 03:15:36 03:20:28 37° 96° (E) 03:25:17 435.822 SSB
PCSat 26 Oct 03:20:05 03:23:08 15° 105° (ESE) 03:26:12 145.825 MHz
OPAL 26 Oct 03:39:38 03:42:57 18° 49° (NE) 03:46:14 ?
Oscar 19 26 Oct 03:40:28 03:45:35 70° 289° (WNW) 03:50:39 437.125 CW, 437.150 USB
Gurwin Techsat 1B 26 Oct 03:43:13 03:48:09 37° 96° (E) 03:53:03 435.225 FM
JAS-1B 26 Oct 03:51:23 03:57:48 79° 289° (WNW) 04:05:27 435.800 - 435.900 CW/SSB
RS-15 26 Oct 03:52:48 04:03:14 46° 5° (N) 04:13:55 29.354 - 29.394 USB, Beacon 29.352 USB
TMSAT-1 26 Oct 03:53:36 03:58:28 35° 95° (E) 04:03:16 436.925 FM
AO-27 26 Oct 04:01:27 04:06:45 83° 106° (ESE) 04:11:59 436.795 MHz FM
AO-Echo 26 Oct 04:10:28 04:15:46 68° 290° (WNW) 04:21:03 ?
AO-7 26 Oct 04:11:28 04:16:59 19° 84° (E) 04:22:29 29.400 - 29.500 MHz
Uosat F 26 Oct 04:21:10 04:21:48 10° 82° (E) 04:22:26 435.120 FM
Oscar 16 26 Oct 04:26:53 04:31:25 32° 299° (WNW) 04:35:56 437.025 USB, Beacon 2401.1428
Sapphire 26 Oct 04:38:08 04:43:20 50° 120° (ESE) 04:48:35 437.095 MHz 1200 baud AX-25 AFSK
Uribyol 2 26 Oct 04:48:43 04:53:39 44° 296° (WNW) 04:58:34 436.500 FM
ITAMSAT 1 26 Oct 04:55:08 05:00:03 42° 296° (WNW) 05:04:55 435.822 SSB
PCSat 26 Oct 05:00:16 05:05:40 74° 125° (SE) 05:11:07 145.825 MHz
OPAL 26 Oct 05:16:00 05:21:08 78° 69° (ENE) 05:26:13 ?
Oscar 19 26 Oct 05:21:11 05:24:05 15° 310° (NW) 05:26:59 437.125 CW, 437.150 USB
Gurwin Techsat 1B 26 Oct 05:23:12 05:28:13 43° 296° (WNW) 05:33:13 435.225 FM
STRAND 1 26 Oct 05:26:12 05:29:30 18° 51° (NE) 05:32:49 ?
TMSAT-1 26 Oct 05:33:28 05:38:32 45° 295° (WNW) 05:43:33 436.925 FM
AO-27 26 Oct 05:41:50 05:45:42 21° 306° (NW) 05:49:33 436.795 MHz FM
JAS-1B 26 Oct 05:43:11 05:47:47 22° 309° (NW) 05:52:53 435.800 - 435.900 CW/SSB
JAS-2 26 Oct 05:43:58 05:50:23 27° 87° (E) 05:56:49 435.800 - 435.900 CW/SSB, 435.910 FM
AO-Echo 26 Oct 05:50:35 05:53:40 16° 310° (NW) 05:56:45 ?
Uosat F 26 Oct 05:56:37 06:01:40 61° 102° (ESE) 06:06:39 435.120 FM
AO-7 26 Oct 06:03:00 06:11:21 71° 107° (ESE) 06:19:40 29.400 - 29.500 MHz
RS-15 26 Oct 06:06:38 06:17:40 69° 37° (NE) 06:29:07 29.354 - 29.394 USB, Beacon 29.352 USB
Hamsat 26 Oct 06:11:43 06:14:22 16° 88° (E) 06:17:00 145.90 MHz
Sapphire 26 Oct 06:21:44 06:26:54 43° 321° (NW) 06:32:07 437.095 MHz 1200 baud AX-25 AFSK
Uribyol 2 26 Oct 06:30:47 06:31:55 11° 317° (NW) 06:33:03 436.500 FM
ITAMSAT 1 26 Oct 06:37:39 06:38:17 10° 318° (NW) 06:38:55 435.822 SSB
PCSat 26 Oct 06:44:41 06:49:35 33° 328° (NNW) 06:54:31 145.825 MHz
OPAL 26 Oct 06:56:58 07:00:36 19° 268° (W) 07:04:13 ?
STRAND 1 26 Oct 07:02:49 07:07:58 80° 72° (ENE) 07:13:09 ?
Gurwin Techsat 1B 26 Oct 07:05:53 07:06:56 11° 317° (NW) 07:07:59 435.225 FM
Saudisat 1A 26 Oct 07:06:09 07:07:45 12° 110° (ESE) 07:09:22 436.775 MHz
TMSAT-1 26 Oct 07:15:47 07:17:15 11° 316° (NW) 07:18:42 436.925 FM
JAS-2 26 Oct 07:28:28 07:36:13 87° 288° (WNW) 07:44:05 435.800 - 435.900 CW/SSB, 435.910 FM
Uosat F 26 Oct 07:35:58 07:40:08 26° 302° (WNW) 07:44:16 435.120 FM
Hamsat 26 Oct 07:46:37 07:50:48 69° 287° (WNW) 07:54:59 145.90 MHz
MaSat-1 26 Oct 07:54:19 07:56:27 19° 40° (NE) 07:58:25 437.345 MHz
AO-7 26 Oct 07:56:14 08:03:44 39° 310° (NW) 08:11:13 29.400 - 29.500 MHz
SO-67 26 Oct 07:57:18 08:00:12 24° 94° (E) 08:03:05 435.3500 MHz FM
Sapphire 26 Oct 08:07:42 08:11:43 20° 346° (NNW) 08:15:45 437.095 MHz 1200 baud AX-25 AFSK
RS-15 26 Oct 08:19:19 08:29:52 53° 243° (WSW) 08:40:51 29.354 - 29.394 USB, Beacon 29.352 USB
PCSat 26 Oct 08:30:49 08:34:37 19° 353° (N) 08:38:26 145.825 MHz
Saudisat 1A 26 Oct 08:42:09 08:46:30 67° 130° (SE) 08:50:55 436.775 MHz
STRAND 1 26 Oct 08:44:12 08:47:47 19° 272° (W) 08:51:24 ?
HO-68 26 Oct 08:59:40 09:04:25 18° 85° (E) 09:09:07 435.675 MHz FM
JAS-2 26 Oct 09:14:11 09:20:24 29° 308° (NW) 09:26:47 435.800 - 435.900 CW/SSB, 435.910 FM
Hamsat 26 Oct 09:24:31 09:26:00 12° 307° (NW) 09:27:29 145.90 MHz
MaSat-1 26 Oct 09:29:39 09:32:08 32° 244° (WSW) 09:34:25 437.345 MHz
SO-67 26 Oct 09:30:09 09:33:13 30° 293° (WNW) 09:36:17 435.3500 MHz FM
AO-7 26 Oct 09:49:45 09:54:22 16° 335° (NNW) 09:59:00 29.400 - 29.500 MHz
Sapphire 26 Oct 09:53:08 09:57:06 20° 12° (NNE) 10:01:04 437.095 MHz 1200 baud AX-25 AFSK
Oscar 11 26 Oct 10:08:07 10:10:52 16° 88° (E) 10:13:37 145.825 FM, Beacon 2401.500 USB
PCSat 26 Oct 10:15:43 10:19:58 22° 19° (NNE) 10:24:12 145.825 MHz
Saudisat 1A 26 Oct 10:22:26 10:26:25 32° 331° (NNW) 10:30:26 436.775 MHz
RS-15 26 Oct 10:34:35 10:39:25 14° 268° (W) 10:44:19 29.354 - 29.394 USB, Beacon 29.352 USB
HO-68 26 Oct 10:46:08 10:53:23 75° 106° (ESE) 11:00:34 435.675 MHz FM
ZACube-1 26 Oct 11:01:38 11:05:07 24° 92° (E) 11:08:32 437.345 MHz
JAS-2 26 Oct 11:02:03 11:03:07 10° 332° (NNW) 11:04:12 435.800 - 435.900 CW/SSB, 435.910 FM
UKube-1 26 Oct 11:03:10 11:07:28 51° 101° (E) 11:11:43 145.840 MHz, 145.915 MHz
KITSAT 1 26 Oct 11:15:59 11:20:46 17° 100° (E) 11:25:33 435.175 FM
Sapphire 26 Oct 11:36:49 11:41:58 40° 37° (NE) 11:47:06 437.095 MHz 1200 baud AX-25 AFSK
AO-7 26 Oct 11:41:34 11:43:51 11° 2° (N) 11:46:09 29.400 - 29.500 MHz
Oscar 11 26 Oct 11:43:15 11:47:33 71° 288° (WNW) 11:51:50 145.825 FM, Beacon 2401.500 USB
FUNcube-1 26 Oct 11:45:32 11:49:47 59° 101° (E) 11:53:56 145.950 - 145.970 MHz USB
Oscar 19 26 Oct 11:48:53 11:51:03 13° 47° (NE) 11:53:12 437.125 CW, 437.150 USB
PCSat 26 Oct 11:59:12 12:04:33 54° 43° (NE) 12:09:52 145.825 MHz
Saudisat 1A 26 Oct 12:04:05 12:07:13 19° 355° (N) 12:10:21 436.775 MHz
AO-27 26 Oct 12:12:53 12:13:28 10° 42° (NE) 12:14:02 436.795 MHz FM
AO-Echo 26 Oct 12:16:23 12:18:10 12° 46° (NE) 12:19:57 ?
Oscar 16 26 Oct 12:32:26 12:36:32 25° 57° (ENE) 12:40:39 437.025 USB, Beacon 2401.1428
HO-68 26 Oct 12:34:22 12:40:35 33° 308° (NW) 12:46:48 435.675 MHz FM
ZACube-1 26 Oct 12:37:39 12:41:46 46° 292° (WNW) 12:45:47 437.345 MHz
UKube-1 26 Oct 12:39:51 12:43:25 25° 300° (WNW) 12:46:58 145.840 MHz, 145.915 MHz
ISS 26 Oct 12:44:22 12:45:32 11° 139° (SE) 12:46:42 145.800 FM
JAS-1B 26 Oct 12:54:41 12:59:44 34° 58° (ENE) 13:04:50 435.800 - 435.900 CW/SSB
Uribyol 2 26 Oct 12:55:46 12:59:30 20° 53° (NE) 13:03:14 436.500 FM
SO-50 26 Oct 13:01:14 13:04:57 26° 117° (ESE) 13:08:47 436.795 FM
ITAMSAT 1 26 Oct 13:02:07 13:05:57 21° 54° (NE) 13:09:48 435.822 SSB
KITSAT 1 26 Oct 13:06:42 13:14:38 64° 122° (ESE) 13:22:37 435.175 FM
Sapphire 26 Oct 13:20:19 13:25:38 55° 239° (WSW) 13:30:55 437.095 MHz 1200 baud AX-25 AFSK
Oscar 11 26 Oct 13:21:11 13:22:59 13° 308° (NW) 13:24:48 145.825 FM, Beacon 2401.500 USB
FUNcube-1 26 Oct 13:22:37 13:25:49 21° 301° (WNW) 13:28:57 145.950 - 145.970 MHz USB
Oscar 19 26 Oct 13:24:22 13:29:23 55° 68° (ENE) 13:34:24 437.125 CW, 437.150 USB
AO-7 26 Oct 13:28:16 13:33:28 19° 30° (NNE) 13:38:40 29.400 - 29.500 MHz
Gurwin Techsat 1B 26 Oct 13:32:27 13:36:22 21° 54° (NE) 13:40:17 435.225 FM
TMSAT-1 26 Oct 13:42:41 13:46:27 20° 53° (NE) 13:50:13 436.925 FM
PCSat 26 Oct 13:42:53 13:47:51 37° 244° (WSW) 13:52:46 145.825 MHz
Saudisat 1A 26 Oct 13:44:35 13:48:11 23° 19° (NNE) 13:51:46 436.775 MHz
AO-27 26 Oct 13:46:50 13:51:43 42° 64° (ENE) 13:56:38 436.795 MHz FM
AO-Echo 26 Oct 13:50:59 13:55:48 51° 67° (ENE) 14:00:47 ?
Oscar 16 26 Oct 14:10:22 14:15:30 68° 257° (WSW) 14:20:40 437.025 USB, Beacon 2401.1428
UOSAT-12 26 Oct 14:16:12 14:19:03 16° 112° (ESE) 14:21:55 437.025 FM, 437.400 FM
ISS 26 Oct 14:18:24 14:21:33 39° 158° (SSE) 14:24:42 145.800 FM
HO-68 26 Oct 14:23:50 14:26:14 12° 332° (NNW) 14:28:38 435.675 MHz FM
Uribyol 2 26 Oct 14:33:07 14:38:21 89° 253° (WSW) 14:43:38 436.500 FM
ITAMSAT 1 26 Oct 14:39:39 14:44:53 84° 254° (WSW) 14:50:10 435.822 SSB
SO-50 26 Oct 14:40:36 14:45:09 67° 318° (NW) 14:49:52 436.795 FM
JAS-1B 26 Oct 14:44:47 14:50:21 49° 261° (W) 14:55:55 435.800 - 435.900 CW/SSB
KITSAT 1 26 Oct 15:02:33 15:10:24 51° 327° (NNW) 15:18:17 435.175 FM
Oscar 19 26 Oct 15:04:41 15:09:03 27° 267° (W) 15:13:25 437.125 CW, 437.150 USB
Sapphire 26 Oct 15:06:53 15:07:54 11° 259° (W) 15:08:54 437.095 MHz 1200 baud AX-25 AFSK
Gurwin Techsat 1B 26 Oct 15:10:26 15:15:45 84° 254° (WSW) 15:21:07 435.225 FM
AO-7 26 Oct 15:16:38 15:24:24 47° 55° (NE) 15:32:12 29.400 - 29.500 MHz
TMSAT-1 26 Oct 15:20:25 15:25:44 90° 253° (WSW) 15:31:06 436.925 FM
Saudisat 1A 26 Oct 15:24:05 15:28:31 65° 42° (NE) 15:32:55 436.775 MHz
AO-27 26 Oct 15:26:28 15:31:18 37° 264° (W) 15:36:11 436.795 MHz FM
AO-Echo 26 Oct 15:30:32 15:34:50 29° 267° (W) 15:39:18 ?
Uosat F 26 Oct 15:38:15 15:42:33 29° 59° (ENE) 15:46:52 435.120 FM
UOSAT-12 26 Oct 15:53:49 15:58:30 81° 132° (SE) 16:03:16 437.025 FM, 437.400 FM
Oscar 16 26 Oct 15:54:04 15:55:52 12° 277° (W) 15:57:41 437.025 USB, Beacon 2401.1428
ISS 26 Oct 15:54:42 15:58:02 72° 177° (S) 16:01:23 145.800 FM
JAS-2 26 Oct 16:03:50 16:08:49 24° 48° (NE) 16:14:14 435.800 - 435.900 CW/SSB, 435.910 FM
Uribyol 2 26 Oct 16:15:22 16:18:36 16° 273° (W) 16:21:51 436.500 FM
ITAMSAT 1 26 Oct 16:22:12 16:25:12 15° 274° (W) 16:28:14 435.822 SSB
SO-50 26 Oct 16:22:40 16:26:32 25° 341° (NNW) 16:30:29 436.795 FM
Gurwin Techsat 1B 26 Oct 16:53:26 16:56:34 16° 275° (W) 16:59:43 435.225 FM
KITSAT 1 26 Oct 17:00:33 17:07:42 33° 355° (N) 17:14:51 435.175 FM
TMSAT-1 26 Oct 17:03:04 17:06:26 17° 274° (W) 17:09:49 436.925 FM
Saudisat 1A 26 Oct 17:04:09 17:07:46 25° 242° (WSW) 17:11:22 436.775 MHz
AO-7 26 Oct 17:09:00 17:17:07 57° 257° (WSW) 17:25:17 29.400 - 29.500 MHz
Hamsat 26 Oct 17:10:38 17:14:05 25° 62° (ENE) 17:17:31 145.90 MHz
Uosat F 26 Oct 17:16:12 17:21:07 54° 259° (W) 17:26:05 435.120 FM
OPAL 26 Oct 17:22:12 17:23:44 11° 86° (E) 17:25:14 ?
ISS 26 Oct 17:31:21 17:34:36 49° 197° (SSW) 17:37:50 145.800 FM
UOSAT-12 26 Oct 17:34:56 17:39:09 31° 334° (NNW) 17:43:24 437.025 FM, 437.400 FM
JAS-2 26 Oct 17:46:35 17:52:50 82° 71° (ENE) 18:00:01 435.800 - 435.900 CW/SSB, 435.910 FM
HO-68 26 Oct 17:53:26 17:55:14 11° 26° (NNE) 17:57:02 435.675 MHz FM
SO-50 26 Oct 18:04:59 18:08:33 21° 6° (N) 18:12:10 436.795 FM
SO-67 26 Oct 18:35:49 18:38:34 23° 64° (ENE) 18:41:19 435.3500 MHz FM
Hamsat 26 Oct 18:45:49 18:49:51 44° 262° (W) 18:53:53 145.90 MHz
KITSAT 1 26 Oct 18:57:44 19:05:18 41° 24° (NNE) 19:12:51 435.175 FM
OPAL 26 Oct 18:58:37 19:03:36 68° 106° (ESE) 19:08:31 ?
AO-7 26 Oct 19:07:59 19:11:53 14° 280° (W) 19:15:49 29.400 - 29.500 MHz
STRAND 1 26 Oct 19:08:16 19:11:41 17° 87° (E) 19:15:03 ?
ISS 26 Oct 19:08:34 19:10:46 17° 216° (SW) 19:12:57 145.800 FM
UOSAT-12 26 Oct 19:17:06 19:20:38 20° 358° (N) 19:24:10 437.025 FM, 437.400 FM
JAS-2 26 Oct 19:33:52 19:38:52 24° 275° (W) 19:44:23 435.800 - 435.900 CW/SSB, 435.910 FM
HO-68 26 Oct 19:34:46 19:40:46 30° 50° (NE) 19:46:47 435.675 MHz FM
SO-50 26 Oct 19:45:55 19:50:21 36° 30° (NNE) 19:54:50 436.795 FM
SO-67 26 Oct 20:08:15 20:11:24 34° 263° (W) 20:14:36 435.3500 MHz FM
UKube-1 26 Oct 20:30:16 20:33:00 17° 55° (NE) 20:35:45 145.840 MHz, 145.915 MHz
OPAL 26 Oct 20:38:08 20:42:06 24° 306° (NW) 20:46:02 ?
RS-15 26 Oct 20:44:40 20:50:06 15° 94° (E) 20:55:31 29.354 - 29.394 USB, Beacon 29.352 USB
STRAND 1 26 Oct 20:46:22 20:51:34 85° 287° (WNW) 20:56:43 ?
KITSAT 1 26 Oct 20:53:33 21:01:41 88° 50° (NE) 21:09:47 435.175 FM
UOSAT-12 26 Oct 20:58:05 21:02:11 28° 22° (NNE) 21:06:15 437.025 FM, 437.400 FM
Oscar 11 26 Oct 21:08:38 21:12:20 28° 63° (ENE) 21:16:01 145.825 FM, Beacon 2401.500 USB
FUNcube-1 26 Oct 21:13:01 21:16:00 18° 57° (ENE) 21:18:56 145.950 - 145.970 MHz USB
HO-68 26 Oct 21:20:39 21:27:50 83° 252° (WSW) 21:35:06 435.675 MHz FM
SO-50 26 Oct 21:26:27 21:31:14 65° 231° (SW) 21:36:04 436.795 FM
ZACube-1 26 Oct 22:03:24 22:07:42 42° 67° (ENE) 22:11:55 437.345 MHz
UKube-1 26 Oct 22:04:16 22:08:38 86° 254° (WSW) 22:13:03 145.840 MHz, 145.915 MHz
STRAND 1 26 Oct 22:26:36 22:30:05 19° 308° (NW) 22:33:33 ?
UOSAT-12 26 Oct 22:38:13 22:43:00 81° 45° (NE) 22:47:42 437.025 FM, 437.400 FM
Oscar 11 26 Oct 22:44:16 22:48:23 42° 262° (W) 22:52:31 145.825 FM, Beacon 2401.500 USB
FUNcube-1 26 Oct 22:47:18 22:51:52 82° 256° (WSW) 22:56:21 145.950 - 145.970 MHz USB
RS-15 26 Oct 22:49:12 22:59:45 57° 119° (ESE) 23:10:18 29.354 - 29.394 USB, Beacon 29.352 USB
KITSAT 1 26 Oct 22:49:38 22:56:15 29° 252° (WSW) 23:02:51 435.175 FM
SO-50 26 Oct 23:08:49 23:10:58 13° 250° (WSW) 23:13:08 436.795 FM
HO-68 26 Oct 23:11:32 23:16:40 21° 274° (W) 23:21:50 435.675 MHz FM
MaSat-1 26 Oct 23:12:50 23:14:35 13° 108° (ESE) 23:16:15 437.345 MHz
ZACube-1 26 Oct 23:40:15 23:44:13 29° 266° (W) 23:48:09 437.345 MHz
UKube-1 26 Oct 23:43:40 23:45:32 12° 274° (W) 23:47:24 145.840 MHz, 145.915 MHz
UOSAT-12 27 Oct 00:19:07 00:22:39 21° 245° (WSW) 00:26:08 437.025 FM, 437.400 FM
FUNcube-1 27 Oct 00:27:00 00:28:56 13° 275° (W) 00:30:52 145.950 - 145.970 MHz USB
MaSat-1 27 Oct 00:45:51 00:49:45 85° 304° (NW) 00:53:13 437.345 MHz
RS-15 27 Oct 01:01:14 01:12:05 65° 326° (NNW) 01:23:07 29.354 - 29.394 USB, Beacon 29.352 USB
Oscar 19 27 Oct 01:31:44 01:33:39 12° 83° (E) 01:35:33 437.125 CW, 437.150 USB
AO-Echo 27 Oct 01:54:07 01:55:47 11° 82° (E) 01:57:28 ?
Oscar 16 27 Oct 02:16:10 02:20:34 28° 93° (E) 02:24:55 437.025 USB, Beacon 2401.1428
JAS-1B 27 Oct 02:19:54 02:25:49 33° 95° (E) 02:32:39 435.800 - 435.900 CW/SSB
MaSat-1 27 Oct 02:23:30 02:25:44 15° 322° (NW) 02:27:50 437.345 MHz
Uribyol 2 27 Oct 02:40:23 02:44:21 21° 90° (E) 02:48:16 436.500 FM
ITAMSAT 1 27 Oct 02:46:57 02:51:04 23° 90° (E) 02:55:08 435.822 SSB
PCSat 27 Oct 02:51:10 02:52:49 11° 102° (ESE) 02:54:27 145.825 MHz
